SVMISVBM

Guest
Details From SVMI - Caracas Simon Bolivar Intl
To SVBM - BARQUISIMETO INTL
Flight Number -
Tags generated
Created
Modified
Stats Distance 144 nm / 267 km
Max Altitude 10,000 ft / 3,048 m
Waypoints 3
Social Downloads 0
Likes 0
Share

Download

Looking for another format? Having issues loading an existing format? Contact us
Advertisement - Login to hide

Notes

Basic altitude profile: - Ascent Rate: 2500ft/min - Ascent Speed: 250kts - Cruise Altitude: 35000ft - Cruise Speed: 420kts - Descent Rate: 1500ft/min - Descent Speed: 250kts Options: - Use NATs: yes - Use PACOTS: yes - Use low airways: yes - Use high airways: yes

Route

SVMI KERON SVBM

ID Type Via Altitude (ft/m) Position (lat/lon) Dist (leg/tot) Name
O SVMI APT - 0 / 0 10.60312 / -66.99059 - / 0 nm Caracas Simon Bolivar Intl
KERON FIX - 10,000 / 3,048 10.25981 / -68.59847 97 / 97 nm
O SVBM APT - 0 / 0 10.04235 / -69.35886 46 / 143 nm BARQUISIMETO INTL

Altitude Profile

Advertisement - Login to hide

SVMI

Details ICAO SVMI (CCS)
Name Maiquetia Simon Bolivar Intl
Region Venezuela
Timezone America/Caracas (UTC-4.0)
Stats Elevation 234 ft / 71 m (AMSL)
Location 10.603200° -66.990400°
Runways 2
Magnetic Variation 12.530° W

METAR

SVMI 090400Z 09002KT 9999 BKN016 25/23 Q1013

Decode

TAF

TAF SVMI 082200Z 0900/1000 06009KT 9999 SCT016 BKN100 TX32/0818Z TN22/0808Z BECMG 0900/0904 07005KT 8000 RA OVC016

Decode

Departure Runways

ID Width Length Bearing (true/mag) Surface Threshold Overrun Markings Lighting
09 151 ft / 46 m 9,523 ft / 2,903 m 75.94° / 88.47° ASPHALT 0 ft / 0 m 0 ft / 0 m VISUAL EDGE THRESHOLD REIL-OMNI
10 151 ft / 46 m 11,494 ft / 3,503 m 88.13° / 100.66° ASPHALT 0 ft / 0 m 187 ft / 57 m PREC-APP CENTERLINE EDGE THRESHOLD MALSR REIL-OMNI
27 151 ft / 46 m 9,523 ft / 2,903 m 255.95° / 268.48° ASPHALT 0 ft / 0 m 0 ft / 0 m VISUAL EDGE THRESHOLD REIL-OMNI
28 151 ft / 46 m 11,494 ft / 3,503 m 268.13° / 280.66° ASPHALT 0 ft / 0 m 187 ft / 57 m PREC-APP CENTERLINE EDGE THRESHOLD REIL-OMNI

SVBM

Details ICAO SVBM (BRM)
Name BARQUISIMETO INTL
Region Venezuela
Timezone America/Caracas (UTC-4.0)
Stats Elevation 2,042 ft / 622 m (AMSL)
Location 10.042300° -69.358900°
Runways 1
Magnetic Variation 11.199° W

METAR

SVBM 090302Z AUTO 10007KT NCD 17/23 Q1018

Decode

TAF

Not found

Destination Runways

ID Width Length Bearing (true/mag) Surface Threshold Overrun Markings Lighting
09 147 ft / 45 m 9,428 ft / 2,874 m 80.91° / 92.11° ASPHALT 0 ft / 0 m 0 ft / 0 m APP EDGE THRESHOLD ALSF-I
27 147 ft / 45 m 9,428 ft / 2,874 m 260.91° / 272.11° ASPHALT 1,541 ft / 470 m 315 ft / 96 m APP EDGE THRESHOLD

Popular Alternatives